Franklin, PA

10:45 AM EDT on April 22, 2018 (GMT -0400)
Venango Regional

Weather History for KFKL - September, 2012

Change the Weather History Date:

Saturday, September 8, 2012

  Actual Average Record
Temperature  
Mean Temperature 60 °F -  
Max Temperature 68 °F 76 °F 95 °F (1933)
Min Temperature 53 °F 52 °F 37 °F (1932)
Degree Days  
Heating Degree Days 4    
Growing Degree Days 10 (Base 50)    
Moisture  
Dew Point 57 °F    
Average Humidity 83    
Maximum Humidity 94    
Minimum Humidity 56    
Precipitation  
Precipitation 0.45 in - - ()
Sea Level Pressure  
Sea Level Pressure 29.73 in    
Wind  
Wind Speed 10 mph (WSW)    
Max Wind Speed 18 mph    
Max Gust Speed 33 mph    
Visibility 10 miles    
Events Thunderstorm    
Averages and records for this station are not official NWS values.
T = Trace of Precipitation, MM = Missing Value Source: NWS Daily Summary

Daily Weather History Graph

Daily Weather History Graph

Search for Another Location

Airport or City:

Astronomy

Sep. 08, 2012 Rise Set
Actual Time 6:53 AM EDT 7:39 PM EDT
Civil Twilight 6:25 AM EDT 8:07 PM EDT
Nautical Twilight 5:51 AM EDT 8:40 PM EDT
Astronomical Twilight 5:17 AM EDT 9:15 PM EDT
Moon No Moon Rise 2:38 PM EDT (9/8)
Length of Visible Light 13h 42m
Length of Day
12h 46m
Waning Gibbous, 49% of the Moon is Illuminated
Sep 8
Waning Gibbous
Sep 15
New
Sep 22
First Quarter
Sep 29
Full
Oct 8
Last Quarter

Hourly Weather History & Observations

Time (EDT) Temp. Dew Point Humidity Pressure Visibility Wind Dir Wind Speed Gust Speed Precip Events Conditions
12:35 AM 64.4 °F 60.8 °F 88% 29.76 in 10.0 mi SSE 9.2 mph - N/A   Clear
12:55 AM 64.4 °F 60.8 °F 88% 29.76 in 10.0 mi SSE 9.2 mph - N/A   Clear
1:15 AM 64.4 °F 60.8 °F 88% 29.76 in 10.0 mi South 6.9 mph - N/A   Clear
1:35 AM 64.4 °F 62.6 °F 94% 29.75 in 10.0 mi SSE 10.4 mph - N/A   Clear
1:55 AM 64.4 °F 62.6 °F 94% 29.74 in 10.0 mi SSE 9.2 mph - N/A   Scattered Clouds
2:15 AM 64.4 °F 62.6 °F 94% 29.72 in 10.0 mi SSE 9.2 mph - N/A   Scattered Clouds
2:35 AM 66.2 °F 62.6 °F 88% 29.70 in 10.0 mi SSE 10.4 mph - N/A   Scattered Clouds
2:55 AM 66.2 °F 62.6 °F 88% 29.69 in 10.0 mi SSE 12.7 mph - N/A   Scattered Clouds
3:15 AM 66.2 °F 62.6 °F 88% 29.68 in 10.0 mi SSE 10.4 mph - N/A   Mostly Cloudy
3:35 AM 66.2 °F 62.6 °F 88% 29.67 in 10.0 mi South 10.4 mph - N/A   Mostly Cloudy
3:55 AM 66.2 °F 62.6 °F 88% 29.66 in 10.0 mi South 12.7 mph - N/A   Partly Cloudy
4:15 AM 66.2 °F 62.6 °F 88% 29.64 in 10.0 mi South 13.8 mph 18.4 mph N/A   Scattered Clouds
4:35 AM 68.0 °F 62.6 °F 83% 29.63 in 10.0 mi South 12.7 mph 19.6 mph N/A   Mostly Cloudy
4:55 AM 68.0 °F 62.6 °F 83% 29.63 in 10.0 mi South 12.7 mph - N/A   Overcast
5:15 AM 68.0 °F 62.6 °F 83% 29.61 in 10.0 mi SSW 9.2 mph - N/A   Mostly Cloudy
5:35 AM 68.0 °F 62.6 °F 83% 29.60 in 10.0 mi South 5.8 mph - N/A   Partly Cloudy
5:55 AM 68.0 °F 64.4 °F 88% 29.60 in 10.0 mi South 18.4 mph 27.6 mph N/A Thunderstorm Scattered Clouds
6:15 AM 66.2 °F 64.4 °F 94% 29.64 in 7.0 mi SW 16.1 mph 33.4 mph 0.10 in   Overcast
6:35 AM 66.2 °F 62.6 °F 88% 29.64 in 10.0 mi SW 11.5 mph 19.6 mph 0.16 in Thunderstorm Thunderstorm
6:55 AM 64.4 °F 62.6 °F 94% 29.63 in 10.0 mi South 12.7 mph - 0.18 in   Overcast
7:15 AM 64.4 °F 62.6 °F 94% 29.62 in 10.0 mi South 10.4 mph - 0.02 in   Overcast
7:35 AM 64.4 °F 62.6 °F 94% 29.61 in 10.0 mi South 12.7 mph 18.4 mph 0.03 in   Overcast
7:55 AM 64.4 °F 62.6 °F 94% 29.61 in 10.0 mi South 15.0 mph - 0.03 in   Overcast
8:15 AM 64.4 °F 62.6 °F 94% 29.63 in 10.0 mi SSW 13.8 mph 24.2 mph 0.01 in   Overcast
8:35 AM 64.4 °F 62.6 °F 94% 29.62 in 10.0 mi SSW 13.8 mph 17.3 mph 0.01 in   Overcast
8:55 AM 64.4 °F 62.6 °F 94% 29.62 in 10.0 mi SSW 13.8 mph 20.7 mph 0.01 in   Overcast
9:15 AM 64.4 °F 62.6 °F 94% 29.63 in 10.0 mi SW 11.5 mph 20.7 mph 0.01 in   Overcast
9:35 AM 62.6 °F 59.0 °F 88% 29.65 in 7.0 mi NW 9.2 mph 21.9 mph 0.11 in   Overcast
9:55 AM 60.8 °F 57.2 °F 88% 29.65 in 10.0 mi NW 12.7 mph 18.4 mph 0.11 in   Overcast
10:15 AM 60.8 °F 57.2 °F 88% 29.68 in 9.0 mi WNW 11.5 mph 19.6 mph 0.01 in   Overcast
10:35 AM 60.8 °F 59.0 °F 94% 29.70 in 3.0 mi WNW 6.9 mph - 0.03 in   Overcast
10:55 AM 59.0 °F 57.2 °F 94% 29.69 in 8.0 mi North 5.8 mph - 0.09 in   Overcast
11:15 AM 60.8 °F 57.2 °F 88% 29.70 in 8.0 mi NW 4.6 mph - 0.01 in   Overcast
11:35 AM 60.8 °F 57.2 °F 88% 29.67 in 10.0 mi North 4.6 mph - 0.02 in   Mostly Cloudy
11:55 AM 60.8 °F 57.2 °F 88% 29.68 in 10.0 mi NW 4.6 mph - 0.02 in   Overcast
12:15 PM 60.8 °F 57.2 °F 88% 29.71 in 8.0 mi NW 11.5 mph - 0.01 in   Overcast
12:35 PM 59.0 °F 57.2 °F 94% 29.75 in 5.0 mi West 11.5 mph 18.4 mph 0.01 in   Overcast
12:55 PM 59.0 °F 55.4 °F 88% 29.75 in 10.0 mi West 9.2 mph - 0.01 in   Overcast
1:15 PM 57.2 °F 55.4 °F 94% 29.73 in 10.0 mi WNW 10.4 mph - N/A   Overcast
1:35 PM 59.0 °F 55.4 °F 88% 29.74 in 10.0 mi WNW 9.2 mph - N/A   Overcast
1:55 PM 59.0 °F 55.4 °F 88% 29.72 in 10.0 mi WNW 10.4 mph - N/A   Mostly Cloudy
2:15 PM 60.8 °F 55.4 °F 82% 29.75 in 10.0 mi WNW 12.7 mph 19.6 mph N/A   Scattered Clouds
2:35 PM 60.8 °F 55.4 °F 82% 29.76 in 10.0 mi West 10.4 mph - N/A   Mostly Cloudy
2:55 PM 60.8 °F 55.4 °F 82% 29.76 in 10.0 mi WNW 8.1 mph 17.3 mph N/A   Mostly Cloudy
3:15 PM 62.6 °F 55.4 °F 77% 29.76 in 10.0 mi West 12.7 mph 17.3 mph N/A   Scattered Clouds
3:35 PM 62.6 °F 53.6 °F 72% 29.77 in 10.0 mi WNW 11.5 mph 16.1 mph N/A   Mostly Cloudy
3:55 PM 62.6 °F 53.6 °F 72% 29.76 in 10.0 mi WNW 6.9 mph 16.1 mph N/A   Mostly Cloudy
4:15 PM 62.6 °F 51.8 °F 68% 29.77 in 10.0 mi WNW 9.2 mph 20.7 mph N/A   Mostly Cloudy
4:35 PM 64.4 °F 51.8 °F 64% 29.76 in 10.0 mi WNW 12.7 mph 20.7 mph N/A   Scattered Clouds
4:55 PM 64.4 °F 51.8 °F 64% 29.77 in 10.0 mi WNW 13.8 mph 21.9 mph N/A   Mostly Cloudy
5:15 PM 64.4 °F 51.8 °F 64% 29.78 in 10.0 mi WNW 11.5 mph 18.4 mph N/A   Mostly Cloudy
5:35 PM 64.4 °F 51.8 °F 64% 29.78 in 10.0 mi WNW 12.7 mph 23.0 mph N/A   Mostly Cloudy
5:55 PM 64.4 °F 51.8 °F 64% 29.79 in 10.0 mi WNW 11.5 mph 21.9 mph N/A   Mostly Cloudy
6:15 PM 64.4 °F 50.0 °F 59% 29.79 in 10.0 mi WNW 10.4 mph 19.6 mph N/A   Partly Cloudy
6:35 PM 64.4 °F 48.2 °F 56% 29.80 in 10.0 mi WNW 8.1 mph 16.1 mph N/A   Clear
6:55 PM 64.4 °F 50.0 °F 59% 29.80 in 10.0 mi WNW 9.2 mph - N/A   Clear
7:15 PM 62.6 °F 48.2 °F 59% 29.80 in 10.0 mi NW 8.1 mph - N/A   Clear
7:35 PM 60.8 °F 48.2 °F 63% 29.81 in 10.0 mi NW 6.9 mph - N/A   Clear
7:55 PM 59.0 °F 48.2 °F 67% 29.82 in 10.0 mi NW 6.9 mph - N/A   Clear
8:15 PM 59.0 °F 48.2 °F 67% 29.83 in 10.0 mi West 5.8 mph - N/A   Clear
8:35 PM 57.2 °F 48.2 °F 72% 29.84 in 10.0 mi WSW 5.8 mph - N/A   Clear
8:55 PM 55.4 °F 48.2 °F 77% 29.84 in 10.0 mi WSW 6.9 mph - N/A   Clear
9:15 PM 55.4 °F 48.2 °F 77% 29.85 in 10.0 mi WSW 5.8 mph - N/A   Clear
9:35 PM 53.6 °F 48.2 °F 82% 29.85 in 10.0 mi SW 6.9 mph - N/A   Clear
9:55 PM 53.6 °F 48.2 °F 82% 29.85 in 10.0 mi SW 6.9 mph - N/A   Clear
10:15 PM 55.4 °F 50.0 °F 82% 29.86 in 10.0 mi SW 6.9 mph - N/A   Mostly Cloudy
10:35 PM 53.6 °F 50.0 °F 88% 29.86 in 10.0 mi SW 5.8 mph - N/A   Mostly Cloudy
11:15 PM 53.6 °F 50.0 °F 88% 29.87 in 10.0 mi SW 4.6 mph - N/A   Scattered Clouds
11:35 PM 53.6 °F 50.0 °F 88% 29.87 in 10.0 mi SW 6.9 mph - N/A   Scattered Clouds
11:55 PM 53.6 °F 48.2 °F 82% 29.87 in 10.0 mi SW 6.9 mph - N/A   Partly Cloudy